Dewpoint
57 56 58 59 59 58 59 58 58 61 59 58 60 56 56 55 57 58 59 56 56 54 51 51 51 52 56 56 56 58 58 57 57 60 60 59 59 59 61 60 60 60 61 61 60 58 56 55 57 63 64 63 63 64 63 63 63 64 64 65 62 63 64
56 56 56 56 57 58 59 60 60 56 58 59 55 56 55 55 56 56 56 54 53 51 49 49 52 52 54 55 56 57 55 56 57 57 57 55 56 56 59 60 59 59 59 60 59 59 58 55 55 57 59 63 63 63 63 64 64 63 63 64 63 62 65
56 55 55 56 57 59 59 60 58 59 57 58 58 56 56 52 56 56 55 55 56 55 54 54 53 54 55 56 56 56 56 56 55 55 55 55 55 54 54 56 55 59 58 58 58 59 58 58 55 55 57 57 57 60 63 63 64 63 63 63 63 61 61
56 56 55 56 56 58 56 57 59 59 57 56 57 57 57 55 57 57 56 55 57 57 54 52 54 54 57 56 55 55 55 55 55 55 55 54 55 51 51 52 51 51 52 52 53 54 53 53 53 53 54 56 55 56 61 62 62 61 61 61 61 61 60
55 55 55 55 55 56 56 56 59 57 56 56 58 58 57 57 57 57 58 57 57 57 57 57 57 55 56 54 55 56 56 56 56 55 54 54 54 53 52 52 53 55 51 50 50 51 51 50 50 47 44 41 48 50 60 61 59 58 59 58 58 58 59
56 56 55 56 56 57 55 56 57 56 56 55 57 56 58 58 58 58 59 57 56 56 57 54 55 56 54 55 55 54 54 54 54 54 53 53 53 53 54 52 51 48 48 51 52 51 51 51 51 48 46 43 45 44 44 59 56 56 56 57 58 59 58
58 57 56 55 57 57 57 57 57 56 55 56 55 57 57 58 58 58 59 58 57 56 55 56 57 55 57 51 55 56 55 55 56 55 54 54 54 54 54 50 49 49 52 54 52 54 55 50 48 46 45 45 44 41 39 37 43 51 54 54 52 50 51
58 58 58 57 57 57 57 57 57 58 57 55 55 57 55 57 58 57 59 57 56 56 56 56 57 57 57 51 52 56 55 56 54 54 54 54 53 53 52 53 55 50 52 46 51 48 48 50 50 49 48 45 45 45 44 39 37 38 42 52 50 47 47
56 57 57 57 58 59 59 58 58 59 58 57 56 57 56 56 58 57 57 56 56 56 57 56 56 55 55 55 54 56 54 53 54 54 54 54 54 53 52 53 51 48 50 50 48 49 50 50 50 55 53 47 44 42 42 42 41 41 40 38 43 41 41
57 57 56 58 58 58 61 60 58 59 60 58 57 58 56 57 58 57 56 56 56 56 56 55 56 55 54 56 54 54 55 55 55 55 55 54 54 55 53 52 54 50 48 53 49 49 51 51 50 49 49 50 49 44 43 42 42 43 40 40 39 39 41
58 58 57 59 60 57 60 61 61 58 59 60 57 57 57 57 58 57 57 56 56 56 55 54 53 53 54 56 53 54 54 55 55 54 56 54 53 53 53 51 51 50 50 52 52 54 53 50 52 51 48 47 49 47 46 44 44 45 44 45 41 41 41
60 61 60 61 59 58 58 59 60 60 58 59 58 57 58 56 57 57 57 56 56 55 55 55 56 54 53 55 52 54 54 54 54 53 54 53 54 55 51 52 52 52 52 53 54 53 53 55 50 47 47 47 48 49 48 47 44 46 46 45 46 43 42
58 59 61 62 60 58 59 60 60 60 59 56 57 58 56 55 55 56 56 55 56 55 54 54 53 54 53 54 50 52 51 52 52 52 51 53 49 53 50 49 48 49 49 48 49 51 52 52 52 50 49 49 48 49 48 47 45 44 47 46 46 45 42
61 61 59 60 61 60 58 59 60 60 59 58 56 57 56 55 53 55 54 53 53 54 54 54 53 54 51 53 51 52 50 48 49 50 51 50 50 50 49 49 47 49 49 48 50 48 48 47 49 49 48 47 46 47 45 46 44 43 45 48 46 43 44
61 60 61 61 59 58 58 59 59 59 59 59 58 55 54 55 54 53 53 52 53 53 53 52 53 53 51 52 52 52 53 49 48 49 51 48 49 50 51 47 46 47 47 47 47 41 42 41 38 37 42 45 41 47 47 46 43 43 41 44 45 44 42
60 60 59 58 58 57 58 58 57 59 60 58 56 56 55 55 54 52 52 53 52 52 53 52 53 52 52 51 51 51 54 50 49 50 50 49 46 46 49 48 46 48 50 47 48 48 48 46 44 40 42 43 43 45 43 43 44 43 42 43 45 43 43
60 60 59 60 60 58 56 56 56 58 57 58 55 56 55 53 53 53 52 52 52 52 53 53 53 51 51 50 50 50 51 51 50 50 50 48 46 48 47 48 49 50 49 48 48 48 46 46 47 44 43 41 43 44 45 47 48 46 45 45 45 43 44
59 60 60 59 60 61 60 60 59 58 58 57 56 56 55 54 52 52 53 52 51 51 52 52 51 51 52 52 51 51 51 49 50 49 50 49 50 49 48 48 47 47 48 47 47 46 46 47 41 44 43 41 41 44 45 45 43 41 41 40 41 42 43
59 58 59 58 58 58 58 59 58 61 61 57 55 58 56 57 56 53 52 51 51 50 51 51 51 51 50 51 51 51 52 51 50 48 49 49 47 49 48 47 48 47 47 47 47 46 45 44 43 44 42 41 39 41 44 44 44 43 42 40 39 41 42
60 59 59 58 58 59 60 60 58 57 58 57 58 59 59 58 59 58 58 58 54 52 51 54 55 52 51 50 51 50 52 52 51 51 50 48 48 48 47 47 48 48 47 46 46 46 45 45 47 44 45 44 42 43 43 42 42 41 42 41 41 41 40
59 59 59 59 59 59 59 58 57 58 59 59 59 58 57 58 58 59 58 58 58 57 58 57 56 52 51 51 51 51 50 51 50 51 51 49 49 48 48 48 48 46 47 45 45 44 45 43 38 39 38 37 37 36 36 37 37 37 36 38 38 38 39
55 57 58 58 58 58 57 57 57 57 58 58 58 58 59 58 58 57 58 58 58 59 59 57 56 54 52 51 52 51 50 50 50 50 50 50 49 48 47 47 46 45 49 48 42 40 39 38 39 34 36 36 37 37 37 37 38 37 37 37 37 39 38
51 52 53 53 55 59 58 58 58 57 57 57 57 58 58 57 57 57 56 56 56 58 56 56 54 50 48 51 53 50 52 51 49 49 49 49 49 48 47 46 48 49 45 44 39 35 33 33 36 38 36 37 38 37 37 37 36 37 37 35 35 35 36
51 50 50 51 52 50 49 55 58 58 58 57 57 57 57 56 56 56 55 55 56 57 57 56 50 46 44 43 48 53 51 51 50 49 49 48 47 47 46 43 45 46 44 42 39 36 36 35 35 36 37 38 40 39 36 36 35 35 34 34 34 33 33
47 48 49 48 48 49 51 49 50 53 57 57 57 57 57 56 56 56 56 56 56 56 56 51 48 45 43 43 45 53 52 50 50 49 48 47 45 45 44 44 44 47 43 42 41 40 38 37 36 36 36 36 35 35 37 36 35 35 35 33 32 32 32
46 48 48 48 50 50 47 49 50 49 49 56 54 54 54 54 54 55 55 54 54 55 56 49 46 43 41 41 42 47 49 50 48 47 46 45 44 43 43 44 45 47 45 46 42 41 40 41 38 37 37 37 37 36 34 35 36 38 37 36 35 35 34
43 46 48 48 49 48 48 48 51 52 51 50 52 54 53 53 53 54 53 53 53 55 56 46 43 41 40 40 41 45 48 48 47 45 44 43 45 44 44 44 43 44 44 42 43 42 41 42 42 42 41 39 38 39 38 36 35 36 37 37 37 37 38
47 47 45 44 47 44 46 49 48 49 50 51 51 50 50 51 53 52 53 53 53 53 57 42 41 40 39 39 40 43 48 47 44 45 45 45 45 45 45 47 44 43 41 41 46 43 43 42 41 41 39 39 39 39 39 40 40 38 38 38 37 37 38
49 48 48 48 47 46 48 50 50 51 50 50 49 48 49 50 51 52 53 53 52 52 45 39 39 38 38 38 39 44 43 43 42 42 44 43 45 45 45 44 43 43 41 41 39 36 38 41 39 39 38 37 37 37 38 39 38 38 40 42 41 40 40
46 47 46 44 44 47 47 47 49 50 49 49 49 49 48 48 49 50 51 52 51 45 42 38 37 37 37 39 42 43 43 40 41 43 43 43 42 42 43 41 41 41 42 40 38 34 34 36 39 38 37 36 37 37 37 39 37 37 37 37 36 36 36
39 45 45 42 44 48 49 49 48 50 48 48 48 48 48 48 48 48 50 51 46 43 39 37 36 35 35 37 41 42 42 42 43 41 42 43 43 42 39 46 43 40 41 41 35 35 35 37 39 38 37 35 35 34 35 36 37 38 36 36 36 36 36
39 41 41 42 46 46 47 47 47 49 48 48 48 48 46 45 48 46 45 44 43 39 35 34 34 33 34 36 41 44 41 40 39 40 37 37 39 39 39 42 42 39 39 36 34 35 34 36 38 37 36 35 34 34 34 35 35 34 34 34 34 34 34
42 41 40 44 47 47 49 48 49 48 49 46 45 46 48 46 45 43 42 41 40 37 34 34 35 33 34 35 37 36 34 33 32 34 35 33 34 33 32 30 33 35 34 34 34 34 34 34 35 35 35 34 34 33 35 34 34 33 33 33 32 33 33
43 44 43 46 48 48 47 48 50 50 49 48 48 48 48 46 42 41 40 38 37 36 35 32 35 32 33 33 34 34 32 34 33 32 29 27 28 29 26 29 37 35 34 33 33 33 33 33 33 35 34 33 33 35 33 31 32 33 31 32 32 31 31
44 46 46 46 48 48 49 49 48 48 47 46 47 49 46 43 41 39 38 36 34 33 35 35 31 32 32 32 32 34 35 34 33 28 28 25 25 28 30 35 35 34 33 33 32 32 32 33 33 35 33 33 33 33 32 33 32 31 30 30 29 30 30
44 45 44 44 46 47 46 45 46 48 48 47 47 48 46 42 40 38 36 35 34 33 33 33 34 33 32 32 32 32 32 35 33 35 32 31 33 33 34 35 37 36 32 32 32 33 33 33 33 33 33 33 33 33 33 32 31 31 30 30 30 30 30
43 45 45 45 44 44 43 44 45 46 45 45 47 47 44 42 40 37 35 34 34 33 33 32 33 33 34 33 32 33 31 32 31 34 37 36 34 34 34 38 38 33 33 33 33 33 33 33 33 32 32 32 32 33 32 32 31 31 31 31 30 30 30